Back to catalog

SL-8 DEB

AliveVLEO
NORAD 5858·DEBRIS·🇷🇺 Russia

Launched Dec 17, 1971 from Plesetsk Cosmodrome

Loading…

Next Passes (next 24 hours)

TLE

FreshSource: Space-Track

Epoch: Sep 14, 2026, 13:23 UTC

1 05858U 71114D   26257.55806349  .00015460  00000-0  62405-3 0  9998
2 05858  73.9796 320.4668 0002535  49.6980 310.4441 15.24779186919027

Track SL-8 DEB in real time with AllMySat

Download on the App Store